Regional Weather Roundup
Issued by NWS

Home | Current Version | Previous Version | Text Only | Print | Product List | Glossary Off
Versions: 1 2 3 4 5 6 7 8 9 10 11 12 13 14 15 16 17 18 19 20 21 22 23 24 25 26 27 28 29 30 31 32 33 34 35 36 37 38 39 40 41 42 43 44 45 46 47 48 49 50

000
ASUS43 KLOT 221212
RWRIL

ILLINOIS REGIONAL WEATHER ROUNDUP
NATIONAL WEATHER SERVICE CHICAGO/ROMEOVILLE IL
600 AM CST SUN JAN 22 2017

NOTE: "FAIR" INDICATES FEW OR NO CLOUDS BELOW 12,000 FEET WITH NO
SIGNIFICANT WEATHER AND/OR OBSTRUCTIONS TO VISIBILITY.

* THESE STATIONS ARE NOT UNDER NWS QUALITY CONTROL. THEY ALSO MAY NOT
  REPORT WEATHER SUCH AS PRECIPITATION OR FOG.

ILZ001-002-007-009-015-016-024-221300-
NORTHWEST ILLINOIS

CITY           SKY/WX    TMP DP  RH WIND       PRES   REMARKS
MOLINE         FOG       31  29  92 W3        29.59R VSB 1/4
6HR MIN TEMP:  29; 6HR MAX TEMP:  43;

STERLING*      FOG       28  28 100 E3        29.60R VSB 1/4
SAVANNA*       FOG       32  32  99 CALM      29.61R VSB<1/4
$$

ILZ003-004-008-010-011-017-018-221300-
NORTH CENTRAL ILLINOIS

CITY           SKY/WX    TMP DP  RH WIND       PRES   REMARKS
ROCKFORD       FOG       33  32  96 NW5       29.61R VSB 1/4 WCI  29
6HR MIN TEMP:  33; 6HR MAX TEMP:  41;

FREEPORT*      FOG       32  32 100 CALM      29.61R VSB 1/4
ROCHELLE*      FOG       31  31 100 CALM      29.61R VSB 1/4
DE KALB*       FOG       32  32  99 CALM      29.60R VSB 3/4
$$

ILZ005-006-012>014-019>023-221300-
NORTHEAST ILLINOIS

CITY           SKY/WX    TMP DP  RH WIND       PRES   REMARKS
CHICAGO-OHARE  MOCLDY    41  38  89 N5        29.59R
6HR MIN TEMP:  38; 6HR MAX TEMP:  42;

CHICAGO-MIDWAY CLOUDY    42  40  92 SE5       29.60R FOG
6HR MIN TEMP:  40; 6HR MAX TEMP:  43;

AURORA         FOG       31  30  96 CALM      29.59R VSB 1/4
6HR MIN TEMP:  30; 6HR MAX TEMP:  41;

LANSING*       LGT RAIN  39  39 100 NE6       29.60R VSB 1/4 WCI  35
JOLIET*        FOG       37  37 100 CALM      29.60R VSB<1/4
WAUKEGAN       CLOUDY    38  38 100 CALM      29.59R FOG
6HR MIN TEMP:  38; 6HR MAX TEMP:  40;

DUPAGE AIRPORT FOG       32  29  88 CALM      29.58R VSB 1/4
6HR MIN TEMP:  31; 6HR MAX TEMP:  42;

KANKAKEE*      FOG       37  36  98 CALM      29.60R VSB 1/2
WHEELING       CLOUDY    41  38  89 N3        29.61R
6HR MIN TEMP:  37; 6HR MAX TEMP:  42;

MORRIS*        FOG       32  32  99 CALM      29.59R VSB 1/4
ROMEOVILLE*    DRZL/FOG  37  37 100 E5        29.59R VSB<1/4 WCI  34
NORTHERLY ISL    N/A     37  36  96 CALM        N/A
$$

LMZ740>746-221300-
SOUTHERN LAKE MICHIGAN

STATION/POSITION SKY/WX   TEMP    WIND        PRES    VSBY  WAVE
                          AIR SEA DIR/SP/G                  HT/PER
                          (F)     (DEG/KT/KT) (MB)    (MI)  (FT/S)
HARRISON CRIB              39      CALM  /  1   N/A
BURNHAM HARBOR             37      CALM  /  2   N/A
CALUMET HARBOR             37      30/  1/  2 1002.0R
BURNS HARBOR               36      70/  6/  8 1003.0R
MICHIGAN CITY              37      30/  8/  9   N/A
$$

ILZ025>027-034>036-040-047-049-050-058-095>099-221300-
WEST-CENTRAL ILLINOIS

CITY           SKY/WX    TMP DP  RH WIND       PRES   REMARKS
QUINCY         CLOUDY    40  39  97 NE10      29.58R FOG
GALESBURG*     FOG       32  32 100 CALM      29.59R VSB 1/2
MACOMB*        CLOUDY    34  34 100 N6        29.61S FOG     WCI  28
JACKSONVILLE*  LGT RAIN  40  40  99 NE8       29.57S VSB 1/4
PITTSFIELD*    FOG       42  42  99 N9        29.57S VSB 1/2
$$

ILZ028>032-037-038-041>044-048-051>054-059>061-221300-
CENTRAL ILLINOIS

CITY           SKY/WX    TMP DP  RH WIND       PRES   REMARKS
PONTIAC        DRZL/FOG  40  40 100 NE7       29.60R VSB 1/4
BLOOMINGTON    LGT RAIN  37  37 100 NE12      29.58R VSB 1/4 WCI  29
DECATUR        CLOUDY    41  41 100 N9        29.54R
PEORIA         FOG       41  41 100 NE3       29.59R VSB 1/2
6HR MIN TEMP:  36; 6HR MAX TEMP:  41;

LACON*         FOG       35  35 100 CALM      29.59R VSB 1/4
LINCOLN*       FOG       39  39 100 NE7       29.57S VSB 1/4 WCI  34
SPRINGFIELD    FOG       40  39  97 N7        29.57R VSB 1/4
6HR MIN TEMP:  40; 6HR MAX TEMP:  47;

TAYLORVILLE    PTCLDY    41  40  97 N7        29.55R FOG
6HR MIN TEMP:  41; 6HR MAX TEMP:  49;

$$

ILZ033-039-045-046-055>057-062-063-221300-
EAST-CENTRAL ILLINOIS

CITY           SKY/WX    TMP DP  RH WIND       PRES   REMARKS
CHAMPAIGN      CLOUDY    45  41  86 N10       29.53F
RANTOUL*       CLOUDY    40  40  99 N7        29.55S FOG
MATTOON        FOG       41  41 100 NW5       29.52R VSB 1/2
PARIS*           N/A     44  44 100 NE5       29.53S FOG
$$

ILZ079-100>102-221300-
SOUTHWEST ILLINOIS

CITY           SKY/WX    TMP DP  RH WIND       PRES   REMARKS
ALTON          CLOUDY    45  42  89 N5        29.53S
BELLEVILLE     CLOUDY    49  49 100 W7        29.50S
CAHOKIA*       CLOUDY    50  43  77 N8        29.51S
SPARTA*        MOCLDY    49  49  98 CALM      29.50S
$$

ILZ064>066-069>071-074>076-080>082-084>086-088>090-092>094-221300-
SOUTH-CENTRAL ILLINOIS

CITY           SKY/WX    TMP DP  RH WIND       PRES   REMARKS
CARBONDALE     CLOUDY    47  47 100 CALM      29.49R
6HR MIN TEMP:  44; 6HR MAX TEMP:  49;

CAIRO*         CLOUDY    51  49  93 NE5       29.47S
EFFINGHAM*     CLOUDY    46  46 100 CALM      29.54R FOG
MARION         CLOUDY    48  48 100 NE5       29.50R
MT. VERNON     CLOUDY    46  45  96 NE5       29.51S
CENTRALIA*     CLOUDY    49  49  99 E3        29.49F
SALEM*         CLOUDY    52  49  89 CALM      29.51S
METROPOLIS*    CLOUDY    51  49  92 CALM      29.48S
$$

ILZ067-068-072-073-078-083-087-091-221300-
SOUTHEAST ILLINOIS

CITY           SKY/WX    TMP DP  RH WIND       PRES   REMARKS
LAWRENCEVILLE  CLOUDY    46  46 100 NE3       29.54R
FLORA*         CLOUDY    49  48  95 CALM      29.53R
FAIRFIELD*     CLOUDY    50  48  93 CALM      29.51S
HARRISBURG*    CLOUDY    50  48  94 N3        29.51R
ROBINSON*      CLOUDY    45  45 100 SE5       29.55R
CARMI*         CLOUDY    47  47  99 NE5       29.51R
$$

ABBREVIATIONS USED IN REMARKS
   TC - TEMPERATURE IN CELSIUS
  WCI - WIND CHILL INDEX
   HX - HEAT INDEX
  VSB - VISIBILITY
$$




USA.gov is the U.S. government's official web portal to all federal, state and local government web resources and services.